Location: Catenanuova
(37.5690°N, 14.6870°E)
Time: 08:10:39
(UTC+02:00)

BlueWalker 3 - Visible Passes

Search period start: 13 May 2025 00:00
Search period end: 23 May 2025 00:00
Orbit: 462 x 473 km, 53.2° (Epoch: 12 May)

Date Brightness Start Highest point End Pass type
(mag) Time Alt. Az. Time Alt. Az. Time Alt. Az.
14 May 5.2 00:42:18 10° NNW 00:42:22 10° NNW 00:42:22 10° NNW visible
15 May 5.0 00:10:32 10° NNW 00:11:18 14° N 00:11:18 14° N visible
15 May 4.7 23:38:47 10° NNW 23:40:16 16° N 23:40:16 16° N visible
16 May 4.4 23:07:02 10° NNW 23:09:14 15° NNE 23:09:14 15° NNE visible
17 May 4.4 22:35:19 10° N 22:37:15 14° NNE 22:38:14 13° NE visible
18 May 5.0 00:11:52 10° NW 00:12:10 12° NW 00:12:10 12° NW visible
18 May 4.5 22:03:38 10° N 22:05:11 12° NNE 22:06:44 10° NE visible
18 May 4.4 23:39:58 10° NW 23:41:10 19° NW 23:41:10 19° NW visible
19 May 4.6 21:32:02 10° N 21:33:06 11° NNE 21:34:10 10° NE visible
19 May 3.7 23:08:03 10° NW 23:10:12 30° NNW 23:10:12 30° NNW visible
20 May 3.0 22:36:09 10° NNW 22:39:15 36° NNE 22:39:15 36° NNE visible
21 May 3.0 22:04:15 10° NNW 22:07:32 31° NE 22:08:19 28° ENE visible
21 May 4.8 23:42:03 10° WNW 23:42:15 11° WNW 23:42:15 11° WNW visible
22 May 3.4 21:32:20 10° NNW 21:35:28 26° NNE 21:37:25 17° E visible
22 May 4.0 23:09:54 10° WNW 23:11:22 20° W 23:11:22 20° W visible
